Date String (YYYY-MM-DD hh:mm:ss) UTC,Instrument flags,absolute air pressure of the measurement (hPa),sample flow rate (lpm),inlet stack bypass flow (lpm),air temperature of the measurement (°C),ambient temperature measured by the external sensor (°C),aerosol sample conditioner tube jacket temperature (°C),OPC LED temperature (°C),internal box temperature (°C),relative humidity of the measurement (%),span deviation,mass concentration of particles derived from Lorenz-Mie calculation of OPC scattering (μg/m³),mass concentration of particles derived from Lorenz-Mie calculation of OPC scattering (μg/m³),mass concentration of particles derived from Lorenz-Mie calculation of OPC scattering (μg/m³)
DateTimeUTC,F1_M11,P_M11,Q1_M11,Q2_M11,T1_M11,T2_M11,T3_M11,T4_M11,T5_M11,U1_M11,ZSPAN_M11,X0_M11,X2_M11,X1_M11
2024-01-22 03:00:00,SystemResetWarning,0822.4,5.00,000.00,022.7,021.8,000.0,031.1,024.1,14.7,0005.4,0009.48,0003.90,0003.58
2024-01-22 03:01:00,SystemResetWarning,0822.4,5.00,000.00,022.7,021.8,000.0,031.1,024.1,14.7,0005.7,0009.49,0003.90,0003.56
2024-01-22 03:02:00,SystemResetWarning,0822.4,5.01,000.00,022.7,021.8,000.0,031.1,024.1,14.7,0005.6,0009.31,0003.86,0003.53
2024-01-22 03:03:00,SystemResetWarning,0822.4,5.00,000.00,022.7,021.8,000.0,031.1,024.1,14.7,0005.4,0008.76,0003.83,0003.50
2024-01-22 03:04:00,SystemResetWarning,0822.4,5.00,000.00,022.7,021.8,000.0,031.1,024.1,14.7,0005.2,0008.74,0003.79,0003.48
2024-01-22 03:05:00,SystemResetWarning,0822.4,5.00,000.00,022.7,021.8,000.0,031.1,024.1,14.7,0005.2,0008.71,0003.79,0003.47
2024-01-22 03:06:00,SystemResetWarning,0822.4,5.00,000.00,022.7,021.8,000.0,031.1,024.1,14.7,0005.0,0008.67,0003.79,0003.49
2024-01-22 03:07:00,SystemResetWarning,0822.4,4.99,000.00,022.7,021.8,000.0,031.1,024.1,14.7,0005.0,0008.08,0003.81,0003.50
2024-01-22 03:08:00,SystemResetWarning,0822.4,4.99,000.00,022.7,021.8,000.0,031.1,024.1,14.7,0004.6,0007.36,0003.80,0003.51
2024-01-22 03:09:00,SystemResetWarning,0822.4,5.00,000.00,022.7,021.7,000.0,031.1,024.1,14.7,0004.8,0007.09,0003.78,0003.51
2024-01-22 03:10:00,SystemResetWarning,0822.4,5.00,000.00,022.7,021.7,000.0,031.1,024.1,14.7,0004.9,0006.33,0003.79,0003.52
2024-01-22 03:11:00,SystemResetWarning,0822.4,5.01,000.00,022.7,021.7,000.0,031.1,024.1,14.8,0004.8,0006.35,0003.77,0003.53
2024-01-22 03:12:00,SystemResetWarning,0822.4,5.01,000.00,022.7,021.7,000.0,031.1,024.0,14.8,0004.9,0006.33,0003.76,0003.53
2024-01-22 03:13:00,SystemResetWarning,0822.4,4.99,000.00,022.7,021.7,000.0,031.1,024.0,14.8,0004.8,0006.31,0003.78,0003.55
2024-01-22 03:14:00,SystemResetWarning,0822.4,4.99,000.00,022.7,021.7,000.0,031.0,024.0,14.8,0004.8,0006.36,0003.82,0003.57
2024-01-22 03:15:00,SystemResetWarning,0822.4,5.01,000.00,022.7,021.6,000.0,031.0,024.0,14.8,0004.3,0006.35,0003.83,0003.59
2024-01-22 03:16:00,SystemResetWarning,0822.4,5.01,000.00,022.7,021.6,000.0,031.0,024.0,14.9,0004.2,0006.40,0003.83,0003.58
2024-01-22 03:17:00,SystemResetWarning,0822.4,5.00,000.00,022.7,021.6,000.0,031.0,024.0,15.0,0004.1,0006.55,0003.87,0003.60
2024-01-22 03:18:00,SystemResetWarning,0822.4,4.99,000.00,022.7,021.6,000.0,031.0,024.0,15.0,0003.9,0006.73,0003.93,0003.63
2024-01-22 03:19:00,SystemResetWarning,0822.4,4.99,000.00,022.7,021.6,000.0,031.0,024.0,15.0,0004.4,0006.96,0004.02,0003.70
2024-01-22 03:20:00,SystemResetWarning,0822.4,5.01,000.00,022.7,021.5,000.0,031.0,024.0,14.9,0004.2,0007.10,0004.09,0003.77
2024-01-22 03:21:00,SystemResetWarning,0822.4,5.01,000.00,022.7,021.5,000.0,031.0,024.0,14.9,0003.9,0006.97,0004.13,0003.83
2024-01-22 03:22:00,SystemResetWarning,0822.4,5.01,000.00,022.6,021.5,000.0,031.0,024.0,14.9,0003.5,0007.00,0004.23,0003.91
2024-01-22 03:23:00,SystemResetWarning,0822.5,5.00,000.00,022.6,021.5,000.0,031.0,023.9,14.8,0002.8,0007.17,0004.33,0004.00
2024-01-22 03:24:00,SystemResetWarning,0822.6,4.99,000.00,022.6,021.5,000.0,031.0,023.9,14.8,0002.9,0007.37,0004.40,0004.07
2024-01-22 03:25:00,SystemResetWarning,0822.5,5.00,000.00,022.6,021.5,000.0,031.0,023.9,14.9,0003.3,0008.37,0004.45,0004.13
2024-01-22 03:26:00,SystemResetWarning,0822.5,5.01,000.00,022.6,021.4,000.0,031.0,023.9,14.9,0004.0,0008.53,0004.50,0004.17
2024-01-22 03:27:00,SystemResetWarning,0822.4,5.01,000.00,022.6,021.4,000.0,031.0,023.9,15.0,0003.7,0008.61,0004.56,0004.22
2024-01-22 03:28:00,SystemResetWarning,0822.4,4.99,000.00,022.6,021.4,000.0,031.0,023.9,15.1,0003.5,0008.54,0004.56,0004.23
2024-01-22 03:29:00,SystemResetWarning,0822.5,4.99,000.00,022.6,021.4,000.0,031.0,023.9,15.2,0003.5,0008.55,0004.56,0004.24
2024-01-22 03:30:00,SystemResetWarning,0822.4,5.00,000.00,022.6,021.4,000.0,030.9,023.9,15.1,0003.1,0008.65,0004.51,0004.22
2024-01-22 03:31:00,SystemResetWarning,0822.5,5.00,000.00,022.6,021.4,000.0,030.9,023.9,15.1,0002.3,0009.10,0004.49,0004.19
2024-01-22 03:32:00,SystemResetWarning,0822.4,5.01,000.00,022.6,021.4,000.0,030.9,023.9,15.0,0002.4,0009.11,0004.46,0004.16
2024-01-22 03:33:00,SystemResetWarning,0822.4,5.00,000.00,022.6,021.4,000.0,030.9,023.9,15.0,0002.6,0009.34,0004.42,0004.14
2024-01-22 03:34:00,SystemResetWarning,0822.4,5.01,000.00,022.5,021.4,000.0,030.9,023.9,15.2,0002.7,0009.23,0004.35,0004.09
2024-01-22 03:35:00,SystemResetWarning,0822.4,5.00,000.00,022.5,021.3,000.0,030.9,023.8,15.4,0003.2,0009.11,0004.27,0004.03
2024-01-22 03:36:00,SystemResetWarning,0822.4,5.00,000.00,022.5,021.3,000.0,030.9,023.8,15.4,0003.3,0008.74,0004.22,0003.99
2024-01-22 03:37:00,SystemResetWarning,0822.4,5.00,000.00,022.5,021.3,000.0,030.9,023.8,15.3,0003.3,0007.82,0004.19,0003.97
2024-01-22 03:38:00,SystemResetWarning,0822.4,4.99,000.00,022.5,021.3,000.0,030.9,023.8,15.3,0003.1,0007.77,0004.16,0003.95
2024-01-22 03:39:00,SystemResetWarning,0822.4,5.00,000.00,022.5,021.3,000.0,030.9,023.8,15.2,0003.5,0008.06,0004.15,0003.93
2024-01-22 03:40:00,SystemResetWarning,0822.4,5.00,000.00,022.5,021.3,000.0,030.9,023.8,15.1,0003.5,0008.08,0004.14,0003.91
2024-01-22 03:41:00,SystemResetWarning,0822.4,5.00,000.00,022.5,021.2,000.0,030.9,023.8,15.1,0003.4,0007.98,0004.11,0003.88
2024-01-22 03:42:00,SystemResetWarning,0822.4,5.00,000.00,022.5,021.3,000.0,030.9,023.8,15.0,0000.9,0007.58,0004.12,0003.88
2024-01-22 03:43:00,SystemResetWarning,0822.4,5.00,000.00,022.5,021.3,000.0,030.8,023.8,15.0,0001.2,0007.34,0004.11,0003.87
2024-01-22 03:44:00,SystemResetWarning,0822.4,5.00,000.00,022.4,021.3,000.0,030.8,023.8,15.0,0004.4,0007.31,0004.10,0003.85
2024-01-22 03:45:00,SystemResetWarning,0822.4,5.00,000.00,022.4,021.3,000.0,030.8,023.8,15.0,0004.5,0007.28,0004.10,0003.84
2024-01-22 03:46:00,SystemResetWarning,0822.4,5.00,000.00,022.4,021.3,000.0,030.8,023.8,15.1,0004.8,0007.59,0004.12,0003.83
2024-01-22 03:47:00,SystemResetWarning,0822.4,5.00,000.00,022.4,021.3,000.0,030.8,023.8,15.1,0005.0,0007.70,0004.10,0003.81
2024-01-22 03:48:00,SystemResetWarning,0822.4,5.00,000.00,022.4,021.3,000.0,030.8,023.7,15.2,0004.9,0008.08,0004.10,0003.79
2024-01-22 03:49:00,SystemResetWarning,0822.4,5.01,000.00,022.4,021.3,000.0,030.8,023.7,15.1,0004.8,0008.31,0004.07,0003.77
2024-01-22 03:50:00,SystemResetWarning,0822.4,5.00,000.00,022.4,021.2,000.0,030.8,023.7,15.1,0005.0,0008.03,0004.05,0003.77
2024-01-22 03:51:00,SystemResetWarning,0822.5,5.01,000.00,022.4,021.2,000.0,030.8,023.7,15.1,0005.2,0007.91,0004.01,0003.76
2024-01-22 03:52:00,SystemResetWarning,0822.4,5.00,000.00,022.4,021.2,000.0,030.8,023.7,15.0,0005.3,0007.91,0004.01,0003.76
2024-01-22 03:53:00,SystemResetWarning,0822.4,5.00,000.00,022.4,021.2,000.0,030.8,023.7,15.0,0004.9,0007.92,0004.01,0003.75
2024-01-22 03:54:00,SystemResetWarning,0822.4,5.00,000.00,022.4,021.2,000.0,030.8,023.7,15.1,0004.4,0007.94,0003.99,0003.73
2024-01-22 03:55:00,SystemResetWarning,0822.4,5.00,000.00,022.4,021.2,000.0,030.8,023.7,15.3,0003.6,0007.81,0003.97,0003.71
2024-01-22 03:56:00,SystemResetWarning,0822.4,5.00,000.00,022.4,021.2,000.0,030.8,023.7,15.5,0003.7,0007.67,0003.96,0003.70
2024-01-22 03:57:00,SystemResetWarning,0822.4,5.00,000.00,022.4,021.2,000.0,030.7,023.7,15.4,0003.9,0007.53,0003.93,0003.69
2024-01-22 03:58:00,SystemResetWarning,0822.4,5.01,000.00,022.4,021.2,000.0,030.7,023.6,15.3,0003.7,0007.19,0003.90,0003.69
2024-01-22 03:59:00,SystemResetWarning,0822.4,5.00,000.00,022.3,021.1,000.0,030.7,023.7,15.2,0003.1,0006.70,0003.89,0003.70
